Regional Weather Roundup
Issued by NWS Little Rock, AR

Home | Current Version | Previous Version | Graphics & Text | Print | Product List | Glossary On
Versions: 1 2 3 4 5 6 7 8 9 10 11 12 13 14 15 16 17 18 19 20 21 22 23 24 25 26 27 28 29 30 31 32 33 34 35 36 37 38 39 40 41 42 43 44 45 46 47 48 49 50
000
ASUS44 KLZK 101305
RWRLZK

WEATHER ROUNDUP FOR ARKANSAS
NATIONAL WEATHER SERVICE LITTLE ROCK AR
700 AM CST WED FEB 10 2016

NOTE: "FAIR" INDICATES FEW OR NO CLOUDS BELOW 12,000 FEET WITH NO
SIGNIFICANT WEATHER AND/OR OBSTRUCTIONS TO VISIBILITY.

ARZ001-003-010-029-101400-
NORTHWEST ARKANSAS

CITY           SKY/WX    TMP DP  RH WIND       PRES   REMARKS
FAYETTEVILLE   MOCLDY    18  13  80 S5        30.25R WCI  11
FORT SMITH     PTCLDY    22  10  60 W8        30.33R WCI  12
HARRISON       CLEAR     21   8  57 W6        30.22S WCI  13
BENTONVILLE    CLOUDY    21   9  58 SW5       30.25R WCI  15
ROGERS         MOCLDY    20  10  65 SW6       30.25R WCI  12
SILOAM SPGS    CLOUDY    21   7  53 CALM      30.26R
HIGHFILL       CLOUDY    21  13  71 SW6       30.24R WCI  13
SPRINGDALE     CLEAR     21  10  63 S6        30.26R WCI  14
$$

ARZ004-005-016-101400-
NORTH CENTRAL ARKANSAS

CITY           SKY/WX    TMP DP  RH WIND       PRES   REMARKS
BATESVILLE     CLEAR     23   7  50 W3        30.29S
FLIPPIN        CLEAR     21   7  53 SW5       30.23S WCI  15
MTN HOME       CLEAR     22  10  60 VRB3      30.22F
$$

ARZ040-041-101400-
WEST CENTRAL ARKANSAS

CITY           SKY/WX    TMP DP  RH WIND       PRES   REMARKS
MENA           CLEAR     28  12  50 CALM      30.29R
MOUNT IDA      CLEAR     25  14  63 CALM      30.27S
$$

ARZ009-017-025-026-028-101400-
NORTHEAST ARKANSAS

CITY           SKY/WX    TMP DP  RH WIND       PRES   REMARKS
CORNING        FAIR      19  10  68 W7        30.27S WCI  10
JONESBORO      CLEAR     22   9  57 W6        30.28R WCI  14
NEWPORT        CLEAR     23   9  55 CALM      30.31S
WALNUT RIDGE   PTCLDY    19   7  58 W6        30.29S WCI  11
BLYTHEVILLE    CLEAR     21  10  62 NW8       30.27R WCI  11
$$

ARZ022-023-033-042-044-101400-
CENTRAL ARKANSAS

CITY           SKY/WX    TMP DP  RH WIND       PRES   REMARKS
LITTLE ROCK    CLEAR     28   8  43 W6        30.34R WCI  22
N LITTLE ROCK    N/A     27  12  53 W5        30.34R WCI  21
JACKSONVILLE   CLEAR     23  12  63 W1        30.31R
SEARCY         CLEAR     19  15  84 CALM      30.33S
HOT SPRINGS    CLEAR     26  12  55 CALM      30.31F
RUSSELLVILLE   CLEAR     23  13  65 CALM      30.30R
CLINTON        FAIR      19  12  73 CALM      30.30S
$$

ARZ036-101400-
EAST ARKANSAS

CITY           SKY/WX    TMP DP  RH WIND       PRES   REMARKS
WEST MEMPHIS   CLEAR     24  12  60 NW7       30.29R WCI  16
$$

ARZ050-053-066-070-073-101400-
SOUTHWEST ARKANSAS

CITY           SKY/WX    TMP DP  RH WIND       PRES   REMARKS
ARKADELPHIA    FAIR      25  19  77 SW3       30.35S
CAMDEN         CLEAR     27  16  63 CALM      30.34F
TEXARKANA      CLEAR     32  17  54 N5        30.34R WCI  27
EL DORADO      CLEAR     29  14  53 N5        30.34S WCI  24
DE QUEEN       CLEAR     24  20  84 CALM      30.33S
$$

ARZ056-057-069-101400-
SOUTHEAST ARKANSAS

CITY           SKY/WX    TMP DP  RH WIND       PRES   REMARKS
PINE BLUFF     CLEAR     27  10  49 NW5       30.34R WCI  22
STUTTGART      CLEAR     27  10  50 NW9       30.33R WCI  17
MONTICELLO     CLEAR     26  13  57 W3        30.33R

$$





USA.gov is the U.S. government's official web portal to all federal, state and local government web resources and services.